Location: Unspecified
(0.0000°N, 0.0000°E)
Time: 09:45:00
(UTC+02:00)

Vanguard 1 - Visible Passes

Search period start: 27 May 2015 00:00
Search period end: 06 June 2015 00:00
Orbit: 650 x 3835 km, 34.3° (Epoch: 25 May)

Date Brightness Start Highest point End Pass type
(mag) Time Alt. Az. Time Alt. Az. Time Alt. Az.
27 May 13.6 00:19:58 10° NW 00:26:40 16° N 00:35:19 10° NNE visible
27 May 14.0 02:47:15 10° NNW 02:58:01 18° NNE 03:11:51 10° NE visible
27 May 13.8 05:11:05 10° NNW 05:30:37 37° NNE 05:49:50 10° E visible
27 May 12.5 22:16:44 10° WNW 22:22:37 25° NNW 22:31:30 10° NNE visible
28 May 13.7 00:43:45 10° NNW 00:49:51 14° N 00:57:22 10° NNE visible
28 May 14.1 03:09:12 10° NNW 03:21:42 21° NNE 03:37:38 10° ENE visible
28 May 13.6 05:32:25 10° NW 05:53:30 45° NNE 06:13:00 10° E visible
28 May 10.3 20:16:47 10° WSW 20:21:42 68° NW 20:29:37 10° NE visible
28 May 13.0 22:39:30 10° WNW 22:44:57 18° NNW 22:52:21 10° NNE visible
29 May 13.9 01:07:20 10° NNW 01:13:13 13° N 01:20:35 10° NNE visible
29 May 14.0 03:30:44 10° NNW 03:45:11 25° NNE 04:03:07 10° ENE visible
29 May 13.4 05:53:47 10° NW 06:16:07 56° NNE 06:35:38 10° ESE visible
29 May 11.3 20:38:18 10° W 20:43:12 41° NNW 20:50:53 10° NE visible
29 May 13.3 23:02:59 10° NW 23:07:30 14° N 23:12:59 10° NNE visible
30 May 13.9 01:30:03 10° NNW 01:36:41 14° N 01:45:27 10° NE visible
30 May 13.9 03:52:00 10° NNW 04:08:24 30° NNE 04:27:56 10° E visible
30 May 13.2 06:15:13 10° NW 06:38:29 68° NE 06:57:48 10° ESE visible
30 May 12.1 21:00:16 10° W 21:04:58 26° NNW 21:11:49 10° NNE visible
30 May 13.6 23:27:32 10° NNW 23:30:17 11° N 23:33:13 10° N visible
31 May 14.0 01:51:52 10° NNW 02:00:10 16° NNE 02:11:32 10° NE visible
31 May 13.7 04:13:09 10° NNW 04:31:19 38° NNE 04:52:00 10° E visible
31 May 13.0 06:36:50 10° NW 07:00:39 82° NE 07:19:35 10° SE visible
31 May 12.6 21:22:51 10° WNW 21:26:59 18° NNW 21:32:22 10° NNE visible
01 Jun 13.9 02:13:09 10° NNW 02:23:31 19° NNE 02:37:54 10° ENE visible
01 Jun 13.5 04:34:18 10° NW 04:54:00 47° NNE 05:15:21 10° ESE visible
01 Jun 12.9 06:58:41 10° NW 07:22:40 83° SW 07:41:05 10° SE visible
01 Jun 13.0 21:46:29 10° NW 21:49:13 12° NNW 21:52:12 10° N visible
02 Jun 13.8 02:34:11 10° NNW 02:46:40 24° NNE 03:03:50 10° ENE visible
02 Jun 13.3 04:55:30 10° NW 05:16:25 57° NE 05:38:07 10° ESE visible
02 Jun 12.8 07:20:51 10° WNW 07:44:38 69° SW 08:02:21 10° SE visible
03 Jun 13.9 00:37:46 10° N 00:39:38 10° NNE 00:42:27 10° NNE visible
03 Jun 13.7 02:55:07 10° NNW 03:09:32 30° NNE 03:28:59 10° E visible
03 Jun 13.0 05:16:48 10° NW 05:38:41 70° NE 06:00:24 10° ESE visible
04 Jun 13.9 00:57:30 10° N 01:02:48 13° NNE 01:10:21 10° NE visible
04 Jun 13.5 03:16:01 10° NNW 03:32:09 37° NNE 03:53:18 10° E visible
04 Jun 12.9 05:38:18 10° NW 06:00:48 84° NE 06:22:18 10° SE visible
04 Jun 12.7 20:29:48 10° NW 20:31:33 11° NNW 20:33:16 10° N visible
05 Jun 13.8 01:17:50 10° N 01:25:49 17° NNE 01:37:28 10° ENE visible
05 Jun 13.3 03:36:58 10° NNW 03:54:32 47° NE 04:16:51 10° ESE visible
05 Jun 12.8 06:00:01 10° NW 06:22:53 82° SW 06:43:54 10° SE visible
